Погода в Верхнем Услоне

Россия / Республика Татарстан     55°46′08″N   48°58′41″E
темп.,
°C
ветер,
м/с
пор.,
м/с
влажн.,
%
обл.,
%
осадки,
мм/ч
давл.,
гПа
погр.,
м
27 февраля, сб
сб2700:00−12юв91594100 6.0 999564
03:00−10юв61095100 7.1 997310
06:00−9вюв4796100 1.1 996203
09:00−7в3596100 1.9 996175
12:00−5всв4595100 0.6 996284
15:00−7св5795100 1.0 998379
18:00−9ссв51094100 0.5 1000439
21:00−11ссв5109399 0.8 1002432
28 февраля, вс
вс2800:00−12с5109499 0.1 1004378
03:00−14с599497 0.3 1007326
06:00−17с499596 0.1 1008276
09:00−18с479496 0.2 1010276
12:00−15с479165 0.0 1011408
15:00−13с478971 0.0 1012577
18:00−19с349566 0.0 101454
21:00−21ссз239638 0.0 101725
1 марта, пн
пн100:00−22ссз23970 0.0 101822
03:00−23ссз23985 0.0 102020
06:00−23ссз239810 0.0 102120
09:00−19ссз239510 0.0 1023138
12:00−14сз228856 0.0 1022306
15:00−14з339175 0.0 1022291
18:00−19зюз239528 0.0 102120
21:00−19юз339714 0.0 102040
2 марта, вт
вт200:00−18ююз379739 0.0 1017126
03:00−16ю599564 0.0 1013246
06:00−13ю61195100 0.4 1009330
09:00−9ююз61094100 1.7 1005431
12:00−5ююз61095100 1.0 1003487
15:00−1ююз4799100 2.1 1001378
18:00−2з489797 0.4 1001210
21:00−1ссз5109596 2.1 1002593
3 марта, ср
ср300:00−6сз349696 0.1 100287
03:00−8сз359689 0.1 1003100
06:00−10сз339690 0.1 100431
09:00−7сз249782 0.1 1005194
12:00−4сз369498 0.1 1006457
15:00−2ссз479399 0.4 1007600
18:00−3ссз4996100 0.4 1008363
21:00−5сз4119594 0.6 1009373